📊 Raw Sensor Data

Showing records 52876 to 52900 of 85,317 total

ID Distance (ft) Battery V Battery A Int Temp (°F) Int Humid (%) Ext Temp (°F) Solar V RSSI SNR Time Stamp
32454 12.8 3.77 0 66 35 57 5.10 -79 8 02/15/2025 01:15 PM
32453 12.8 3.77 0 63 36 55 5.10 -79 8 02/15/2025 01:00 PM
32452 12.8 3.77 0 63 35 55 5.10 -80 7 02/15/2025 12:45 PM
32451 12.9 3.77 0 64 35 55 5.10 -80 6 02/15/2025 12:30 PM
32450 12.9 3.98 0 63 35 55 5.10 -80 7 02/15/2025 12:15 PM
32449 12.9 3.77 0 62 35 54 5.10 -81 8 02/15/2025 12:00 PM
32448 12.8 3.96 0 59 36 53 5.10 -82 7 02/15/2025 11:45 AM
32447 12.9 3.77 0 59 35 53 5.10 -81 8 02/15/2025 11:30 AM
32446 12.9 3.77 0 58 35 52 5.10 -82 7 02/15/2025 11:15 AM
32445 12.9 3.77 0 57 35 53 5.10 -82 8 02/15/2025 11:00 AM
32444 12.9 3.78 0 56 34 51 5.10 -82 8 02/15/2025 10:45 AM
32443 12.8 3.78 0 54 34 51 5.10 -83 8 02/15/2025 10:30 AM
32442 12.9 3.78 0 53 34 50 5.10 -84 8 02/15/2025 10:15 AM
32441 12.8 3.76 0 51 35 49 5.10 -81 7 02/15/2025 10:00 AM
32440 12.8 3.98 0 49 35 48 5.10 -81 8 02/15/2025 09:45 AM
32439 12.8 3.76 0 47 35 47 5.10 -81 8 02/15/2025 09:30 AM
32438 12.8 3.76 0 46 35 47 5.10 -81 7 02/15/2025 09:15 AM
32437 12.8 3.76 0 45 35 46 5.10 -80 7 02/15/2025 09:00 AM
32436 12.8 3.77 0 45 35 46 5.10 -79 8 02/15/2025 08:45 AM
32435 12.8 4.06 0 43 35 45 5.10 -80 8 02/15/2025 08:30 AM
32434 12.7 3.86 0 41 36 43 5.10 -81 8 02/15/2025 08:15 AM
32433 12.7 3.81 0 41 36 43 5.10 -84 9 02/15/2025 08:00 AM
32432 12.7 3.95 31 40 36 43 4.50 -87 8 02/15/2025 07:45 AM
32431 12.7 3.82 11 39 36 42 4.50 -80 9 02/15/2025 07:30 AM
32430 12.7 3.78 0 38 37 41 4.50 -85 8 02/15/2025 07:15 AM